Location: Cubitt Town
(51.4833°N, 0.0000°E)
Time: 00:07:20
(UTC+00:00)

SL-16 R/B - Pass Details

Date: 15 May 2026
Orbit: 841 x 844 km, 71.0° (Epoch: 9 June)

Event Time Altitude Azimuth Distance (km) Brightness Sun altitude
Rises 21:03:17 0° 328° (NNW) 3,416 7.4 -10.0°
Reaches altitude 10° 21:05:46 10° 325° (NW) 2,477 6.2 -10.2°
Maximum altitude 21:11:23 64° 245° (WSW) 932 2.5 -10.8°
Enters shadow 21:16:34 12° 166° (SSE) 2,316 3.9 -11.3°
